Location: Unspecified
(40.8819°N, 0.0000°E)
Time: 12:23:27
(UTC+00:00)

SEEDS - Pass Details

Date: 18 April 2026
Orbit: 468 x 474 km, 97.8° (Epoch: 17 May)

Event Time Altitude Azimuth Distance (km) Brightness Sun altitude
Rises 04:30:31 0° 33° (NNE) 2,520 ? -9.1°
Reaches altitude 10° 04:33:21 10° 58° (ENE) 1,634 ? -8.6°
Maximum altitude 04:35:21 14° 93° (E) 1,379 ? -8.2°
Drops below altitude 10° 04:37:19 10° 128° (SE) 1,624 ? -7.9°
Sets 04:40:07 0° 154° (SSE) 2,492 ? -7.4°
